TimeMST,TemperatureF,Dew PointF,Humidity,Sea Level PressureIn,VisibilityMPH,Wind Direction,Wind SpeedMPH,Gust SpeedMPH,PrecipitationIn,Events,Conditions,WindDirDegrees,DateUTC
12:11 AM,23.4,20.8,90,29.98,10.0,West,13.8,-,N/A,,Clear,260,2014-02-24 07:11:00
12:31 AM,23.9,21.2,89,29.98,10.0,West,11.5,-,N/A,,Clear,270,2014-02-24 07:31:00
12:51 AM,23.7,20.3,87,29.98,10.0,East,4.6,-,N/A,,Clear,100,2014-02-24 07:51:00
1:11 AM,22.1,19.8,91,29.98,10.0,WSW,6.9,-,N/A,,Clear,250,2014-02-24 08:11:00
1:31 AM,24.6,20.1,83,29.97,10.0,West,10.4,-,N/A,,Clear,270,2014-02-24 08:31:00
1:51 AM,25.7,18.1,73,29.97,10.0,West,6.9,-,N/A,,Clear,280,2014-02-24 08:51:00
2:11 AM,26.4,17.1,68,29.97,10.0,WSW,4.6,-,N/A,,Clear,240,2014-02-24 09:11:00
2:31 AM,24.8,17.2,73,29.96,10.0,SW,10.4,-,N/A,,Clear,230,2014-02-24 09:31:00
2:51 AM,25.9,16.7,68,29.96,10.0,West,10.4,-,N/A,,Clear,270,2014-02-24 09:51:00
3:11 AM,28.0,16.2,61,29.95,10.0,West,10.4,-,N/A,,Clear,270,2014-02-24 10:11:00
3:31 AM,28.0,15.4,59,29.95,10.0,West,9.2,-,N/A,,Clear,260,2014-02-24 10:31:00
3:51 AM,28.8,14.2,55,29.95,10.0,WSW,9.2,-,N/A,,Clear,250,2014-02-24 10:51:00
4:11 AM,30.4,14.2,51,29.95,10.0,WSW,6.9,-,N/A,,Clear,250,2014-02-24 11:11:00
4:31 AM,28.2,13.5,54,29.95,10.0,West,3.5,-,N/A,,Clear,270,2014-02-24 11:31:00
4:51 AM,25.0,14.2,64,29.96,10.0,West,4.6,-,N/A,,Clear,260,2014-02-24 11:51:00
5:11 AM,24.1,14.0,65,29.96,10.0,WSW,4.6,-,N/A,,Clear,250,2014-02-24 12:11:00
5:31 AM,24.8,13.6,63,29.96,10.0,West,4.6,-,N/A,,Clear,260,2014-02-24 12:31:00
5:51 AM,31.1,11.5,44,29.96,10.0,SSW,5.8,-,N/A,,Clear,200,2014-02-24 12:51:00
6:11 AM,36.3,8.2,31,29.96,10.0,Calm,Calm,-,N/A,,Clear,0,2014-02-24 13:11:00
6:31 AM,33.3,8.2,35,29.96,10.0,Calm,Calm,-,N/A,,Clear,0,2014-02-24 13:31:00
6:51 AM,30.4,10.9,44,29.97,10.0,NW,3.5,-,N/A,,Clear,320,2014-02-24 13:51:00
7:11 AM,27.7,14.4,57,29.97,10.0,WNW,8.1,-,N/A,,Clear,290,2014-02-24 14:11:00
7:31 AM,29.8,16.0,56,29.98,10.0,WNW,6.9,-,N/A,,Clear,300,2014-02-24 14:31:00
7:51 AM,33.8,16.9,50,29.99,10.0,West,4.6,-,N/A,,Clear,280,2014-02-24 14:51:00
8:11 AM,36.9,16.2,43,29.99,10.0,NW,3.5,-,N/A,,Clear,310,2014-02-24 15:11:00
8:31 AM,43.5,14.7,31,29.99,10.0,West,5.8,-,N/A,,Clear,280,2014-02-24 15:31:00
8:51 AM,46.4,12.4,25,29.99,10.0,West,8.1,-,N/A,,Clear,280,2014-02-24 15:51:00
9:11 AM,48.2,11.1,22,29.99,10.0,West,6.9,-,N/A,,Clear,270,2014-02-24 16:11:00
9:31 AM,49.5,8.4,19,29.99,10.0,WSW,6.9,-,N/A,,Clear,250,2014-02-24 16:31:00
9:51 AM,49.5,7.9,19,29.98,10.0,West,16.1,20.7,N/A,,Clear,260,2014-02-24 16:51:00
10:11 AM,50.2,7.7,18,29.98,10.0,West,11.5,-,N/A,,Clear,270,2014-02-24 17:11:00
10:31 AM,50.5,7.3,17,29.99,10.0,West,12.7,18.4,N/A,,Clear,270,2014-02-24 17:31:00
10:51 AM,52.5,8.4,17,29.98,10.0,West,16.1,20.7,N/A,,Clear,260,2014-02-24 17:51:00
11:11 AM,52.9,8.2,17,29.98,10.0,West,15.0,19.6,N/A,,Clear,260,2014-02-24 18:11:00
11:31 AM,53.4,8.2,16,29.98,10.0,West,12.7,17.3,N/A,,Clear,270,2014-02-24 18:31:00
11:51 AM,53.4,8.1,16,29.97,10.0,SW,12.7,18.4,N/A,,Clear,220,2014-02-24 18:51:00
12:11 PM,54.3,9.1,16,29.96,10.0,WSW,8.1,-,N/A,,Clear,250,2014-02-24 19:11:00
12:31 PM,57.4,9.3,15,29.95,10.0,West,9.2,17.3,N/A,,Clear,280,2014-02-24 19:31:00
12:51 PM,57.7,9.9,15,29.95,10.0,West,17.3,21.9,N/A,,Clear,260,2014-02-24 19:51:00
1:11 PM,58.8,10.2,15,29.94,10.0,West,10.4,21.9,N/A,,Clear,260,2014-02-24 20:11:00
1:31 PM,59.2,10.4,15,29.94,10.0,West,12.7,23.0,N/A,,Clear,270,2014-02-24 20:31:00
1:51 PM,60.1,10.9,14,29.93,10.0,West,21.9,27.6,N/A,,Clear,280,2014-02-24 20:51:00
2:11 PM,59.7,10.8,15,29.93,10.0,West,19.6,27.6,N/A,,Clear,280,2014-02-24 21:11:00
2:31 PM,59.9,11.3,15,29.93,10.0,West,16.1,21.9,N/A,,Clear,280,2014-02-24 21:31:00
2:51 PM,59.7,10.8,15,29.94,10.0,West,19.6,24.2,N/A,,Clear,270,2014-02-24 21:51:00
3:11 PM,59.7,10.9,15,29.94,10.0,WNW,9.2,-,N/A,,Scattered Clouds,300,2014-02-24 22:11:00
3:31 PM,59.9,11.1,15,29.95,10.0,West,12.7,-,N/A,,Scattered Clouds,280,2014-02-24 22:31:00
3:51 PM,59.0,10.8,15,29.96,10.0,WNW,17.3,23.0,N/A,,Clear,290,2014-02-24 22:51:00
4:11 PM,58.5,10.8,15,29.96,10.0,NW,9.2,17.3,N/A,,Scattered Clouds,310,2014-02-24 23:11:00
4:31 PM,57.6,10.0,15,29.97,10.0,West,15.0,-,N/A,,Clear,270,2014-02-24 23:31:00
4:51 PM,56.5,9.3,15,29.98,10.0,WNW,15.0,20.7,N/A,,Clear,300,2014-02-24 23:51:00
5:11 PM,54.9,11.8,18,29.98,10.0,West,12.7,-,N/A,,Clear,280,2014-02-25 00:11:00
5:31 PM,49.1,17.4,28,30.02,10.0,NE,16.1,19.6,N/A,,Clear,40,2014-02-25 00:31:00
5:51 PM,32.7,25.3,74,30.03,10.0,NNE,18.4,24.2,N/A,,Clear,30,2014-02-25 00:51:00
6:11 PM,29.1,23.9,81,30.03,10.0,North,18.4,24.2,N/A,,Clear,360,2014-02-25 01:11:00
6:31 PM,26.1,22.8,88,30.06,10.0,NE,13.8,21.9,N/A,,Clear,40,2014-02-25 01:31:00
6:51 PM,25.2,22.8,91,30.08,10.0,North,20.7,28.8,N/A,,Scattered Clouds,10,2014-02-25 01:51:00
7:11 PM,23.5,21.9,94,30.07,7.0,North,19.6,31.1,N/A,,Scattered Clouds,360,2014-02-25 02:11:00
7:31 PM,22.8,21.2,93,30.07,7.0,North,19.6,29.9,N/A,,Scattered Clouds,360,2014-02-25 02:31:00
7:51 PM,22.1,20.3,93,30.08,7.0,North,21.9,31.1,N/A,,Clear,360,2014-02-25 02:51:00
8:11 PM,21.7,20.3,94,30.08,7.0,North,21.9,29.9,N/A,,Mostly Cloudy,10,2014-02-25 03:11:00
8:31 PM,21.2,19.9,95,30.08,7.0,North,21.9,31.1,N/A,,Overcast,360,2014-02-25 03:31:00
8:51 PM,20.8,19.6,95,30.09,7.0,North,24.2,32.2,N/A,,Overcast,360,2014-02-25 03:51:00
9:11 PM,21.2,20.1,96,30.09,7.0,North,18.4,27.6,N/A,,Mostly Cloudy,10,2014-02-25 04:11:00
9:31 PM,21.2,19.9,95,30.09,10.0,North,19.6,26.5,N/A,,Scattered Clouds,10,2014-02-25 04:31:00
9:51 PM,20.3,19.2,96,30.12,7.0,NE,19.6,28.8,N/A,,Mostly Cloudy,40,2014-02-25 04:51:00
10:11 PM,19.9,19.2,97,30.15,5.0,NNE,17.3,20.7,N/A,,Overcast,30,2014-02-25 05:11:00
10:31 PM,20.1,19.4,97,30.16,7.0,North,13.8,-,N/A,,Overcast,10,2014-02-25 05:31:00
10:51 PM,20.1,19.2,96,30.16,7.0,North,4.6,-,N/A,,Mostly Cloudy,360,2014-02-25 05:51:00
11:11 PM,20.1,19.2,96,30.15,7.0,Calm,Calm,-,N/A,,Mostly Cloudy,0,2014-02-25 06:11:00
11:31 PM,19.9,18.3,93,30.15,10.0,WSW,5.8,-,N/A,,Scattered Clouds,240,2014-02-25 06:31:00
11:51 PM,21.2,19.4,93,30.15,10.0,SW,9.2,-,N/A,,Mostly Cloudy,220,2014-02-25 06:51:00